Madison, MN

3:48 AM CDT on September 22, 2019 (GMT -0500)
Madison-Lac Qui Parle County

Weather History for KDXX - July, 2019

Change the Weather History Date:

Thursday, July 25, 2019

  Actual Average (KAQP) Record (KAQP)
Temperature  
Mean Temperature 74 °F -  
Max Temperature 82 °F 80 °F 95 °F (1999)
Min Temperature 66 °F 59 °F 46 °F (2004)
Cooling Degree Days 9    
Growing Degree Days 24 (Base 50)    
Moisture  
Dew Point 63 °F    
Average Humidity 69    
Maximum Humidity 83    
Minimum Humidity 57    
Precipitation  
Precipitation 0.00 in - - ()
Sea Level Pressure  
Sea Level Pressure 29.96 in    
Wind  
Wind Speed 9 mph (South)    
Max Wind Speed 16 mph    
Max Gust Speed 23 mph    
Visibility 10 miles    
Events Rain    
Averages and records for this station are not official NWS values.
T = Trace of Precipitation, MM = Missing Value Source: NWS Daily Summary

Daily Weather History Graph

Daily Weather History Graph

Search for Another Location

Airport or City:

Astronomy

Jul. 25, 2019 Rise Set
Actual Time 6:02 AM CDT 8:59 PM CDT
Civil Twilight 5:27 AM CDT 9:34 PM CDT
Nautical Twilight 4:43 AM CDT 10:18 PM CDT
Astronomical Twilight 3:50 AM CDT 11:10 PM CDT
Moon 12:56 AM CDT (7/25) 2:35 PM CDT (7/25)
Length of Visible Light 16h 06m
Length of Day
14h 57m
Last Quarter, 44% of the Moon is Illuminated
Jul 25
Last Quarter
Jul 31
New
Aug 7
First Quarter
Aug 15
Full
Aug 23
Last Quarter

Hourly Weather History & Observations

Time (CDT) Temp. Heat Index Dew Point Humidity Pressure Visibility Wind Dir Wind Speed Gust Speed Precip Events Conditions
12:15 AM 69.8 °F - 60.8 °F 73% 30.02 in 10.0 mi South 6.9 mph - N/A   Clear
12:35 AM 69.8 °F - 60.8 °F 73% 30.02 in 10.0 mi SSE 8.1 mph - N/A   Clear
12:36 AM 69.8 °F - 60.8 °F 73% 30.02 in 10.0 mi SSE 8.1 mph - N/A   Clear
12:55 AM 69.8 °F - 60.8 °F 73% 30.02 in 10.0 mi SSE 8.1 mph - N/A   Clear
1:19 AM 68.0 °F - 60.8 °F 78% 30.02 in 10.0 mi SSE 5.8 mph - N/A   Clear
1:36 AM 68.0 °F - 60.8 °F 78% 30.02 in 10.0 mi SE 6.9 mph - N/A   Clear
1:56 AM 68.0 °F - 60.8 °F 78% 30.02 in 10.0 mi SSE 6.9 mph - N/A   Clear
2:15 AM 68.0 °F - 60.8 °F 78% 30.01 in 10.0 mi SE 8.1 mph - N/A   Clear
2:35 AM 68.0 °F - 60.8 °F 78% 30.00 in 10.0 mi SSE 6.9 mph - N/A   Clear
2:40 AM 68.0 °F - 60.8 °F 78% 30.00 in 10.0 mi SSE 6.9 mph - N/A   Clear
2:58 AM 68.0 °F - 60.8 °F 78% 29.99 in 10.0 mi SSE 5.8 mph - N/A   Clear
3:15 AM 68.0 °F - 60.8 °F 78% 29.99 in 10.0 mi SSE 6.9 mph - N/A   Clear
3:35 AM 68.0 °F - 60.8 °F 78% 30.00 in 10.0 mi South 4.6 mph - N/A   Clear
3:36 AM 68.0 °F - 60.8 °F 78% 30.00 in 10.0 mi South 4.6 mph - N/A   Clear
3:55 AM 66.2 °F - 60.8 °F 83% 29.99 in 10.0 mi SSE 5.8 mph - N/A   Clear
3:56 AM 66.2 °F - 60.8 °F 83% 29.99 in 10.0 mi SSE 5.8 mph - N/A   Clear
4:19 AM 68.0 °F - 60.8 °F 78% 29.98 in 10.0 mi SSE 6.9 mph - N/A   Clear
4:36 AM 68.0 °F - 60.8 °F 78% 29.98 in 10.0 mi SSE 8.1 mph - N/A   Scattered Clouds
4:55 AM 69.8 °F - 60.8 °F 73% 29.97 in 10.0 mi SSE 8.1 mph - N/A   Scattered Clouds
4:56 AM 69.8 °F - 60.8 °F 73% 29.97 in 10.0 mi SSE 8.1 mph - N/A   Clear
5:15 AM 69.8 °F - 60.8 °F 73% 29.96 in 10.0 mi SSE 8.1 mph - N/A   Clear
5:16 AM 69.8 °F - 60.8 °F 73% 29.96 in 10.0 mi SSE 9.2 mph - N/A   Clear
5:35 AM 69.8 °F - 60.8 °F 73% 29.96 in 10.0 mi SSE 9.2 mph - N/A   Clear
5:40 AM 69.8 °F - 60.8 °F 73% 29.96 in 10.0 mi SSE 8.1 mph - N/A   Clear
5:57 AM 69.8 °F - 60.8 °F 73% 29.96 in 10.0 mi SSE 11.5 mph - N/A   Clear
6:16 AM 71.6 °F - 60.8 °F 69% 29.95 in 10.0 mi South 10.4 mph - N/A   Clear
6:35 AM 71.6 °F - 59.0 °F 64% 29.95 in 10.0 mi SSE 10.4 mph - N/A   Clear
6:36 AM 71.6 °F - 59.0 °F 64% 29.95 in 10.0 mi South 10.4 mph - N/A   Clear
6:55 AM 71.6 °F - 59.0 °F 64% 29.96 in 10.0 mi South 6.9 mph - N/A   Clear
6:56 AM 71.6 °F - 60.8 °F 69% 29.96 in 10.0 mi South 8.1 mph - N/A   Clear
7:18 AM 71.6 °F - 60.8 °F 69% 29.96 in 10.0 mi SSE 8.1 mph - N/A   Clear
7:37 AM 71.6 °F - 60.8 °F 69% 29.97 in 10.0 mi SSE 6.9 mph - N/A   Clear
7:56 AM 73.4 °F - 60.8 °F 65% 29.97 in 10.0 mi South 4.6 mph - N/A   Clear
8:15 AM 73.4 °F - 60.8 °F 65% 29.97 in 10.0 mi South 4.6 mph - N/A   Clear
8:16 AM 73.4 °F - 60.8 °F 65% 29.97 in 10.0 mi South 4.6 mph - N/A   Clear
8:35 AM 75.2 °F - 62.6 °F 65% 29.96 in 10.0 mi South 4.6 mph - N/A   Clear
8:39 AM 75.2 °F - 62.6 °F 65% 29.96 in 10.0 mi South 6.9 mph - N/A   Clear
8:57 AM 77.0 °F - 60.8 °F 57% 29.96 in 10.0 mi South 10.4 mph - N/A   Clear
9:16 AM 75.2 °F - 60.8 °F 61% 29.96 in 10.0 mi SSW 11.5 mph 17.3 mph N/A   Clear
9:35 AM 75.2 °F - 62.6 °F 65% 29.95 in 10.0 mi SSW 10.4 mph - N/A   Clear
9:36 AM 75.2 °F - 60.8 °F 61% 29.95 in 10.0 mi SSW 11.5 mph 17.3 mph N/A   Clear
9:55 AM 75.2 °F - 60.8 °F 61% 29.95 in 10.0 mi SSW 12.7 mph 21.9 mph N/A   Clear
9:56 AM 75.2 °F - 60.8 °F 61% 29.95 in 10.0 mi SSW 15.0 mph 21.9 mph N/A   Clear
10:18 AM 73.4 °F - 62.6 °F 69% 29.95 in 10.0 mi South 10.4 mph - N/A   Clear
10:36 AM 73.4 °F - 62.6 °F 69% 29.95 in 10.0 mi South 11.5 mph - N/A Rain Light Rain
10:55 AM 73.4 °F - 64.4 °F 73% 29.95 in 10.0 mi South 11.5 mph 18.4 mph N/A   Clear
10:56 AM 73.4 °F - 64.4 °F 73% 29.95 in 10.0 mi South 11.5 mph - N/A   Clear
11:15 AM 73.4 °F - 64.4 °F 73% 29.95 in 10.0 mi South 15.0 mph 20.7 mph N/A   Clear
11:16 AM 73.4 °F - 64.4 °F 73% 29.95 in 10.0 mi South 15.0 mph 20.7 mph N/A   Clear
11:35 AM 73.4 °F - 64.4 °F 73% 29.96 in 10.0 mi SSW 10.4 mph 17.3 mph N/A   Clear
11:40 AM 73.4 °F - 64.4 °F 73% 29.96 in 10.0 mi South 9.2 mph 17.3 mph N/A   Clear
11:57 AM 73.4 °F - 66.2 °F 78% 29.97 in 10.0 mi South 8.1 mph - N/A Rain Light Rain
12:15 PM 73.4 °F - 66.2 °F 78% 29.96 in 10.0 mi South 13.8 mph 18.4 mph N/A Rain Light Rain
12:35 PM 71.6 °F - 64.4 °F 78% 29.95 in 10.0 mi South 13.8 mph 18.4 mph N/A   Clear
12:36 PM 71.6 °F - 64.4 °F 78% 29.95 in 10.0 mi South 11.5 mph 18.4 mph N/A   Clear
12:55 PM 73.4 °F - 64.4 °F 73% 29.95 in 10.0 mi South 10.4 mph - N/A   Clear
12:56 PM 73.4 °F - 64.4 °F 73% 29.95 in 10.0 mi South 9.2 mph - N/A   Clear
1:18 PM 75.2 °F - 64.4 °F 69% 29.96 in 10.0 mi South 4.6 mph - N/A   Light Drizzle
1:37 PM 77.0 °F - 66.2 °F 69% 29.95 in 10.0 mi South 11.5 mph - N/A   Clear
1:56 PM 78.8 °F - 64.4 °F 61% 29.94 in 10.0 mi South 12.7 mph 19.6 mph N/A   Clear
2:15 PM 78.8 °F - 64.4 °F 61% 29.95 in 10.0 mi South 16.1 mph 23.0 mph N/A   Clear
2:16 PM 78.8 °F - 64.4 °F 61% 29.95 in 10.0 mi South 13.8 mph 23.0 mph N/A   Clear
2:35 PM 80.6 °F 82.3 °F 64.4 °F 58% 29.94 in 10.0 mi South 15.0 mph 21.9 mph N/A   Clear
2:57 PM 78.8 °F - 64.4 °F 61% 29.95 in 10.0 mi South 13.8 mph 20.7 mph N/A   Clear
3:16 PM 78.8 °F - 64.4 °F 61% 29.95 in 10.0 mi South 13.8 mph - N/A   Clear
3:35 PM 80.6 °F 82.3 °F 64.4 °F 58% 29.94 in 10.0 mi South 12.7 mph 20.7 mph N/A   Clear
3:36 PM 80.6 °F 82.3 °F 64.4 °F 58% 29.94 in 10.0 mi South 13.8 mph 20.7 mph N/A   Clear
3:55 PM 80.6 °F 82.3 °F 64.4 °F 58% 29.94 in 10.0 mi South 12.7 mph 20.7 mph N/A   Clear
3:56 PM 80.6 °F 82.3 °F 64.4 °F 58% 29.94 in 10.0 mi South 15.0 mph 20.7 mph N/A   Clear
4:19 PM 80.6 °F 82.7 °F 66.2 °F 61% 29.94 in 10.0 mi SSW 11.5 mph 17.3 mph N/A   Clear
4:35 PM 82.4 °F 84.6 °F 66.2 °F 58% 29.94 in 10.0 mi South 12.7 mph 20.7 mph N/A   Clear
4:55 PM 82.4 °F 84.6 °F 66.2 °F 58% 29.95 in 10.0 mi South 11.5 mph - N/A   Clear
5:15 PM 82.4 °F 84.6 °F 66.2 °F 58% 29.95 in 10.0 mi SSW 10.4 mph - N/A   Clear
5:16 PM 82.4 °F 84.6 °F 66.2 °F 58% 29.95 in 10.0 mi South 9.2 mph - N/A   Clear
5:38 PM 82.4 °F 84.6 °F 66.2 °F 58% 29.95 in 10.0 mi South 10.4 mph - N/A   Clear
5:57 PM 82.4 °F 84.6 °F 66.2 °F 58% 29.95 in 10.0 mi South 9.2 mph - N/A   Clear
6:16 PM 80.6 °F 82.7 °F 66.2 °F 61% 29.95 in 10.0 mi South 6.9 mph - N/A   Clear
6:35 PM 82.4 °F 84.6 °F 66.2 °F 58% 29.94 in 10.0 mi South 6.9 mph - N/A   Clear
6:36 PM 82.4 °F 84.6 °F 66.2 °F 58% 29.94 in 10.0 mi South 6.9 mph - N/A   Clear
6:55 PM 82.4 °F 84.6 °F 66.2 °F 58% 29.94 in 10.0 mi SSE 9.2 mph - N/A   Clear
7:16 PM 80.6 °F 82.7 °F 66.2 °F 61% 29.93 in 10.0 mi South 9.2 mph 18.4 mph N/A   Clear
7:35 PM 80.6 °F 82.7 °F 66.2 °F 61% 29.93 in 10.0 mi South 10.4 mph - N/A   Clear
7:36 PM 80.6 °F 82.7 °F 66.2 °F 61% 29.93 in 10.0 mi South 11.5 mph - N/A   Clear
7:55 PM 80.6 °F 82.7 °F 66.2 °F 61% 29.92 in 10.0 mi South 11.5 mph - N/A   Clear
7:56 PM 80.6 °F 82.7 °F 66.2 °F 61% 29.92 in 10.0 mi South 10.4 mph - N/A   Clear
8:15 PM 78.8 °F - 66.2 °F 65% 29.93 in 10.0 mi South 12.7 mph 18.4 mph N/A   Clear
8:19 PM 78.8 °F - 66.2 °F 65% 29.93 in 10.0 mi South 12.7 mph 18.4 mph N/A   Clear
8:38 PM 77.0 °F - 66.2 °F 69% 29.92 in 10.0 mi South 11.5 mph 17.3 mph N/A   Clear
8:55 PM 75.2 °F - 66.2 °F 73% 29.92 in 10.0 mi South 10.4 mph - N/A   Clear
9:15 PM 75.2 °F - 66.2 °F 73% 29.92 in 10.0 mi South 12.7 mph - N/A   Clear
9:16 PM 75.2 °F - 66.2 °F 73% 29.92 in 10.0 mi South 10.4 mph - N/A   Clear
9:35 PM 75.2 °F - 66.2 °F 73% 29.93 in 10.0 mi South 9.2 mph - N/A   Clear
9:58 PM 73.4 °F - 66.2 °F 78% 29.93 in 10.0 mi South 8.1 mph - N/A   Clear
10:17 PM 73.4 °F - 66.2 °F 78% 29.93 in 10.0 mi South 8.1 mph - N/A   Clear
10:36 PM 71.6 °F - 66.2 °F 83% 29.93 in 10.0 mi SSE 6.9 mph - N/A   Clear
10:55 PM 71.6 °F - 66.2 °F 83% 29.93 in 10.0 mi SSE 6.9 mph - N/A   Clear
10:56 PM 71.6 °F - 66.2 °F 83% 29.93 in 10.0 mi SSE 6.9 mph - N/A   Clear
11:15 PM 71.6 °F - 66.2 °F 83% 29.93 in 10.0 mi SSE 5.8 mph - N/A   Clear
11:37 PM 71.6 °F - 66.2 °F 83% 29.92 in 10.0 mi SSE 6.9 mph - N/A   Clear
11:55 PM 71.6 °F - 66.2 °F 83% 29.93 in 10.0 mi South 3.5 mph - N/A   Clear